Location: Unspecified
(41.1637°N, 24.2901°E)
Time: 15:20:06
(UTC+01:00)

ISS - Pass Details

Date: 06 March 2026
Orbit: 417 x 426 km, 51.6° (Epoch: 16 March)

Event Time Altitude Azimuth Distance (km) Brightness Sun altitude
Exits shadow 03:45:31 21° 136° (SE) 985 -1.6 -24.0°
Drops below altitude 10° 03:46:47 10° 133° (SE) 1,488 -0.6 -23.8°
Sets 03:48:52 0° 132° (SE) 2,347 0.5 -23.4°
